Location: Hoyos del Collado
(40.3594°N, 5.2003°W)
Time: 05:37:30
(UTC+00:00)

ISS - Visible Passes

Search period start: 21 June 2024 00:00
Search period end: 01 July 2024 00:00
Orbit: 411 x 425 km, 51.6° (Epoch: 20 June)

Date Brightness Start Highest point End Pass type
(mag) Time Alt. Az. Time Alt. Az. Time Alt. Az.
21 Jun -1.2 03:21:12 10° SSE 03:22:24 12° SE 03:23:35 10° ESE visible
22 Jun -3.5 04:07:27 10° SW 04:10:44 61° SE 04:14:02 10° ENE visible
23 Jun -2.7 03:21:16 22° S 03:22:47 33° SE 03:25:50 10° ENE visible
24 Jun -1.8 02:35:02 19° SE 02:35:02 19° SE 02:37:19 10° E visible
24 Jun -3.1 04:08:10 10° WSW 04:11:23 47° NNW 04:14:38 10° NE visible
25 Jun -3.8 03:21:37 27° WSW 03:23:15 79° NW 03:26:37 10° NE visible
26 Jun -3.6 02:35:12 58° SE 02:35:12 58° SE 02:38:27 10° ENE visible
26 Jun -1.8 04:09:24 10° WNW 04:12:08 23° NNW 04:14:52 10° NNE visible
27 Jun -1.6 01:48:43 20° E 01:48:43 20° E 01:50:05 10° ENE visible
27 Jun -2.3 03:21:37 15° W 03:23:50 32° NNW 03:26:52 10° NE visible
28 Jun -3.2 02:35:03 44° WNW 02:35:33 49° NNW 02:38:48 10° NE visible
28 Jun -1.1 04:10:55 10° NW 04:12:55 15° NNW 04:14:56 10° NNE visible
29 Jun -2.5 01:48:24 39° NE 01:48:24 39° NE 01:50:38 10° NE visible
29 Jun -1.3 03:22:04 10° WNW 03:24:28 18° NNW 03:26:52 10° NNE visible
30 Jun -1.0 01:01:41 15° ENE 01:01:41 15° ENE 01:02:20 10° ENE visible
30 Jun -1.7 02:34:34 18° WNW 02:36:01 23° NNW 02:38:47 10° NNE visible
30 Jun -0.8 04:12:16 10° NNW 04:13:42 12° N 04:15:08 10° NNE visible
